Home   Weather   Albuquerque   Past weeks

Flag for USA Past Weather in Albuquerque, New Mexico, USA — Yesterday and Last 2 Weeks

Now
65 °F

Passing clouds.


Feels Like: 65 °F
Forecast: 58 / 80 °F
Wind: 14 mph from East

Location: Albuquerque International Airport

Current Time: Aug 30, 2016 at 3:27:23 AM

Latest Report: Aug 30, 2016 at 2:52 AM


Visibility: 10 mi

Pressure: 30.08 "Hg (25.20 "Hg at 1510m altitude)

Humidity: 59%

Dew Point: 50 °F

Location of AlbuquerqueLocation

Past Weather in Albuquerque — Graph

°F

Albuquerque Temperature Yesterday

Maximum temperature yesterday: 80 °F (at 2:52 PM)
Minimum temperature yesterday: 59 °F (at 6:52 AM)
Average temperature yesterday: 69 °F

High & Low Weather Summary for the Past Weeks

 TemperatureHumidityPressure
High90 °F (Aug 15, 5:52 PM)97% (Aug 22, 6:52 AM)30.19 "Hg (Aug 22, 6:52 AM)
Low56 °F (Aug 28, 3:52 AM)13% (Aug 15, 5:52 PM)29.78 "Hg (Aug 19, 3:52 PM)
Average71 °F50%29.97 "Hg
* Reported Aug 15 1:52 AM — Aug 30 1:52 AM, Albuquerque, Weather by CustomWeather, © 2016

Note: Actual official high and low records may vary slightly from our data, if they occured in-between our weather recording intervals... More about our weather records

Advertising

Albuquerque Weather History for the Previous 24 Hours

Scroll right to see more
 ConditionsComfort  
Time TempWeatherWind HumidityBarometerVisibility
1:52 AM
Tue, Aug 30
63 °FClear.17 mph63%30.10 "Hg10 mi
12:52 AM64 °FPassing clouds.15 mph61%30.10 "Hg10 mi
11:52 PM
Mon, Aug 29
64 °FPassing clouds.15 mph63%30.10 "Hg10 mi
10:52 PM65 °FPassing clouds.24 mph66%30.10 "Hg10 mi
9:52 PM66 °FPassing clouds.22 mph54%30.08 "Hg10 mi
8:52 PM68 °FPassing clouds.23 mph45%30.06 "Hg10 mi
7:52 PM70 °FPassing clouds.20 mph42%30.04 "Hg10 mi
6:52 PM71 °FPassing clouds.15 mph42%30.03 "Hg10 mi
5:52 PM76 °FScattered clouds.21 mph35%30.02 "Hg10 mi
4:52 PM78 °FPartly sunny.25 mph33%30.00 "Hg10 mi
3:52 PM79 °FScattered clouds.14 mph31%29.98 "Hg10 mi
2:52 PM80 °FScattered clouds.16 mph31%29.99 "Hg10 mi
1:52 PM75 °FThundershowers. Broken clouds.N/A37%30.03 "Hg10 mi
12:52 PM77 °FThundershowers. Scattered clouds.8 mph36%30.04 "Hg10 mi
11:52 AM77 °FScattered clouds.15 mph36%30.05 "Hg10 mi
10:52 AM74 °FPassing clouds.3 mph35%30.09 "Hg10 mi
9:52 AM71 °FPassing clouds.6 mph41%30.07 "Hg10 mi
8:52 AM66 °FScattered clouds.3 mph45%30.08 "Hg10 mi
7:52 AM61 °FScattered clouds.5 mph58%30.08 "Hg10 mi
6:52 AM59 °FPassing clouds.6 mph60%30.06 "Hg10 mi
5:52 AM60 °FPassing clouds.10 mph56%30.05 "Hg10 mi
4:52 AM62 °FPassing clouds.7 mph50%30.04 "Hg10 mi
3:52 AM64 °FPassing clouds.7 mph47%30.01 "Hg10 mi
Weather by CustomWeather, © 2016

See weather overviewHow to use our weather pages